This is the latest recevied weather packets stored in our database for station/object N5PLO-10. If no packets are shown the sender has not sent any weather packets the latest 10 day(s).
| Time | Temp. | Humidity | Pressure | Rain* | Wind** | Luminosity | Snow |
|---|---|---|---|---|---|---|---|
| 1777559803 | 22.22° C | 99% | 1015.3 hPa | 0 mm | - | 93 W/m² | - |
| 1777559499 | 22.22° C | 99% | 1015.2 hPa | 0 mm | - | 84 W/m² | - |
| 1777559197 | 22.78° C | 99% | 1015.2 hPa | 0 mm | - | 84 W/m² | - |
| 1777558892 | 22.22° C | 99% | 1015.2 hPa | 0 mm | - | 97 W/m² | - |
| 1777558588 | 22.22° C | 99% | 1015.1 hPa | 0 mm | - | 93 W/m² | - |
| 1777558283 | 22.22° C | 99% | 1015 hPa | 0 mm | - | 114 W/m² | - |
| 1777557980 | 22.78° C | 99% | 1015.1 hPa | 0 mm | - | 138 W/m² | - |
| 1777557677 | 22.22° C | 99% | 1015.1 hPa | 0 mm | - | 102 W/m² | - |
| 1777557373 | 22.22° C | 99% | 1014.9 hPa | 0 mm | - | 62 W/m² | - |
| 1777557069 | 22.22° C | 99% | 1014.9 hPa | 0 mm | - | 33 W/m² | - |
| 1777556765 | 22.22° C | 99% | 1014.9 hPa | 0 mm | - | 79 W/m² | - |
| 1777556462 | 22.22° C | 99% | 1015 hPa | 0 mm | - | 130 W/m² | - |
| 1777556161 | 22.22° C | 99% | 1014.8 hPa | 0 mm | - | 111 W/m² | - |
| 1777555857 | 22.22° C | 99% | 1014.6 hPa | 0 mm | - | 72 W/m² | - |
| 1777555553 | 22.22° C | 99% | 1014.4 hPa | 0 mm | - | 82 W/m² | - |
| 1777555250 | 22.22° C | 99% | 1014.4 hPa | 0 mm | - | 95 W/m² | - |
| 1777554947 | 21.67° C | 99% | 1014.3 hPa | 0 mm | - | 95 W/m² | - |
| 1777554643 | 21.67° C | 99% | 1013.8 hPa | 0 mm | - | 87 W/m² | - |
| 1777554340 | 21.67° C | 99% | 1014 hPa | 0 mm | - | 65 W/m² | - |
| 1777554037 | 21.67° C | 99% | 1014 hPa | 0 mm | - | 62 W/m² | - |
| 1777553733 | 21.67° C | 99% | 1013.8 hPa | 0 mm | - | 54 W/m² | - |
| 1777553431 | 21.67° C | 99% | 1013.9 hPa | 0 mm | - | 61 W/m² | - |
| 1777553127 | 21.11° C | 99% | 1014.4 hPa | 0 mm | - | 43 W/m² | - |
| 1777552826 | 21.11° C | 99% | 1014.7 hPa | 0 mm | - | 27 W/m² | - |
| 1777552522 | 21.11° C | 99% | 1015 hPa | 1.78 mm | - | 12 W/m² | - |
* Rain latest hour (hover to see other rain measurements)
** Current wind speed in m/s (hover to see current wind gust speed)